Location: Newark
(48.6461°N, 4.3644°W)
Time: 10:57:07
(UTC+00:00)

Transit 2A - Visible Passes

Search period start: 22 January 2020 00:00
Search period end: 01 February 2020 00:00
Orbit: 601 x 958 km, 66.7° (Epoch: 21 January)

Date Brightness Start Highest point End Pass type
(mag) Time Alt. Az. Time Alt. Az. Time Alt. Az.
22 Jan 6.7 04:54:12 46° ENE 04:54:12 46° ENE 04:58:41 10° ESE visible
22 Jan 6.8 06:34:43 21° WNW 06:36:47 29° WSW 06:41:11 10° S visible
23 Jan 7.8 04:21:28 26° E 04:21:28 26° E 04:24:10 10° ESE visible
23 Jan 6.2 06:01:59 38° W 06:02:46 41° WSW 06:07:36 10° S visible
24 Jan 8.7 03:48:48 13° E 03:48:48 13° E 03:49:31 10° E visible
24 Jan 6.1 05:29:20 54° SSW 05:29:20 54° SSW 05:33:47 10° SSE visible
25 Jan 7.1 04:56:47 34° SSE 04:56:47 34° SSE 04:59:47 10° SSE visible
25 Jan 7.7 06:37:19 13° WSW 06:37:19 13° WSW 06:39:27 10° SW visible
26 Jan 8.2 04:24:19 18° SE 04:24:19 18° SE 04:25:37 10° SE visible
26 Jan 7.6 06:04:51 16° SW 06:04:51 16° SW 06:06:49 10° SSW visible
26 Jan 7.6 19:01:13 10° SSE 19:02:08 14° SSE 19:02:08 14° SSE visible
27 Jan 7.9 05:32:29 15° SSW 05:32:29 15° SSW 05:33:35 10° S visible
27 Jan 7.4 18:28:19 10° SE 18:29:49 13° ESE 18:29:49 13° ESE visible
27 Jan 7.5 20:08:42 10° SW 20:10:22 23° SW 20:10:22 23° SW visible
28 Jan 5.9 19:34:35 10° SSW 19:37:58 51° S 19:37:58 51° S visible
29 Jan 5.7 19:00:40 10° SSW 19:04:53 49° ESE 19:05:31 45° E visible
29 Jan 8.1 20:44:31 10° W 20:46:03 18° W 20:46:03 18° W visible
30 Jan 6.3 18:26:57 10° S 18:30:51 33° ESE 18:32:58 21° ENE visible
30 Jan 7.0 20:09:55 10° WSW 20:13:30 34° WNW 20:13:30 34° WNW visible
31 Jan 6.8 17:53:29 10° SSE 17:56:53 22° ESE 18:00:16 10° ENE visible
31 Jan 6.3 19:35:28 10° SW 19:39:42 49° NW 19:40:53 38° N visible
